This is the latest recevied weather packets stored in our database for station/object WB4ZUT. If no packets are shown the sender has not sent any weather packets the latest 10 day(s).
| Time | Temp. | Humidity | Pressure | Rain* | Wind** | Luminosity | Snow |
|---|---|---|---|---|---|---|---|
| 1778182418 | 18.33° C | 41% | 1015.9 hPa | 0 mm | - | 675 W/m² | - |
| 1778182114 | 17.78° C | 43% | 1015.9 hPa | 0 mm | - | 675 W/m² | - |
| 1778181810 | 18.33° C | 40% | 1015.8 hPa | 0 mm | - | 706 W/m² | - |
| 1778181507 | 17.78° C | 46% | 1016 hPa | 0 mm | - | 697 W/m² | - |
| 1778181203 | 17.78° C | 42% | 1016 hPa | 0 mm | - | 675 W/m² | - |
| 1778180900 | 17.78° C | 41% | 1015.9 hPa | 0 mm | - | 697 W/m² | - |
| 1778180598 | 17.78° C | 38% | 1015.7 hPa | 0 mm | - | 686 W/m² | - |
| 1778180297 | 17.78° C | 39% | 1016.1 hPa | 0 mm | - | 676 W/m² | - |
| 1778179993 | 17.78° C | 40% | 1016.4 hPa | 0 mm | - | 716 W/m² | - |
| 1778179691 | 17.78° C | 42% | 1016.2 hPa | 0 mm | - | 724 W/m² | - |
| 1778179389 | 17.78° C | 39% | 1016.1 hPa | 0 mm | - | 726 W/m² | - |
| 1778179085 | 17.22° C | 39% | 1016 hPa | 0 mm | - | 736 W/m² | - |
| 1778178782 | 18.33° C | 38% | 1016.3 hPa | 0 mm | - | 706 W/m² | - |
| 1778178480 | 17.78° C | 43% | 1015.9 hPa | 0 mm | - | 710 W/m² | - |
| 1778178174 | 17.22° C | 40% | 1015.9 hPa | 0 mm | - | 745 W/m² | - |
| 1778177871 | 17.22° C | 39% | 1016.2 hPa | 0 mm | - | 738 W/m² | - |
| 1778177568 | 17.22° C | 39% | 1016.3 hPa | 0 mm | - | 741 W/m² | - |
| 1778177264 | 17.22° C | 40% | 1016.3 hPa | 0 mm | - | 727 W/m² | - |
| 1778176961 | 17.22° C | 39% | 1016.6 hPa | 0 mm | - | 720 W/m² | - |
| 1778176657 | 17.78° C | 43% | 1016.3 hPa | 0 mm | - | 724 W/m² | - |
| 1778176354 | 17.22° C | 45% | 1016.3 hPa | 0 mm | - | 723 W/m² | - |
| 1778176051 | 16.67° C | 41% | 1016.4 hPa | 0 mm | - | 707 W/m² | - |
| 1778175749 | 16.67° C | 37% | 1016.6 hPa | 0 mm | - | 706 W/m² | - |
| 1778175447 | 17.22° C | 36% | 1016.7 hPa | 0 mm | - | 725 W/m² | - |
| 1778175143 | 17.22° C | 37% | 1016.8 hPa | 0 mm | - | 720 W/m² | - |
* Rain latest hour (hover to see other rain measurements)
** Current wind speed in m/s (hover to see current wind gust speed)